CW5834 Weather Reports


Display with metric or nautical units.
time (UTC)temp
F
wind
direction
speed
MPH
gust
MPH
rain 1hr
in
rain 24hr
in
rain mn
in
humidity
%
barometer
mb
20260906090016 69 0.0 1.0 0.00 0.14 0.01 96 1014.6
20260906085016 69 0.0 0.0 0.00 0.14 0.01 96 1014.5
20260906084016 69 0.0 0.0 0.00 0.14 0.01 96 1014.6
20260906083021 70 0.0 2.0 0.00 0.14 0.01 95 1014.5
20260906082016 70 0.0 0.0 0.00 0.14 0.01 96 1014.4
20260906081016 70 0.0 0.0 0.00 0.14 0.01 95 1014.3
20260906080016 70 0.0 2.0 0.00 0.14 0.01 96 1014.2
20260906075036 70 0.0 0.0 0.00 0.14 0.01 96 1014.1
20260906074036 70 0.0 0.0 0.00 0.14 0.01 96 1014.1
20260906073016 70 0.0 0.0 0.00 0.14 0.01 95 1014.0
20260906072016 70 0.0 2.0 0.00 0.14 0.01 96 1014.2
20260906071016 70 0.0 0.0 0.01 0.14 0.01 95 1014.3
20260906070036 70 0.0 2.0 0.01 0.14 0.01 95 1014.4
20260906065016 70 0.0 1.0 0.01 0.14 0.01 95 1014.5
20260906064037 71 0.0 0.0 0.01 0.14 0.01 95 1014.5
20260906063015 71 0.0 2.0 0.01 0.14 0.01 95 1014.7
20260906062016 71 0.0 2.0 0.01 0.14 0.01 96 1014.8
20260906061016 71 0.0 1.0 0.00 0.13 0.00 95 1014.9
20260906060035 71 0.0 0.0 0.00 0.13 0.00 95 1015.1
20260906055016 71 0.0 2.0 0.00 0.13 0.00 96 1014.9
20260906054015 71 0.0 2.0 0.00 0.13 0.00 95 1015.0
20260906053035 71 0.0 0.0 0.00 0.13 0.00 95 1014.9
20260906052017 71 0.0 2.0 0.00 0.13 0.00 95 1014.7
20260906051017 71 0.0 2.0 0.00 0.13 0.00 95 1014.7
20260906050018 71 0.0 2.0 0.00 0.13 0.00 95 1014.8
20260906045015 71 0.0 1.0 0.00 0.13 0.00 95 1015.1
20260906044038 71 0.0 2.0 0.00 0.13 0.00 95 1015.0
20260906043017 71 0.0 0.0 0.00 0.13 0.00 95 1014.8
20260906042037 71 0.0 2.0 0.00 0.13 0.00 95 1014.9
20260906041017 71 0.0 2.0 0.00 0.13 0.00 95 1014.9
20260906040017 71 0.0 0.0 0.00 0.13 0.13 95 1015.0
20260906035016 71 0.0 0.0 0.00 0.13 0.13 95 1015.1
20260906034016 71 0.0 2.0 0.00 0.13 0.13 95 1015.2
20260906033016 71 0.0 2.0 0.00 0.13 0.13 95 1015.3
20260906032016 71 0.0 2.0 0.00 0.13 0.13 95 1015.3
20260906031016 71 0.0 2.0 0.00 0.13 0.13 95 1015.3
20260906030016 71 0.0 1.0 0.00 0.13 0.13 95 1015.1
20260906025016 71 0.0 1.0 0.00 0.13 0.13 95 1015.1
20260906024016 71 315 1.0 1.0 0.00 0.13 0.13 94 1015.1
20260906023016 72 0.0 2.0 0.00 0.13 0.13 95 1014.8
20260906022016 72 0.0 2.0 0.00 0.13 0.13 95 1014.8
20260906021016 71 0.0 1.0 0.00 0.13 0.13 94 1014.8
20260906020016 71 0.0 2.0 0.00 0.13 0.13 94 1014.3
20260906015036 71 293 1.0 2.0 0.00 0.13 0.13 94 1014.4
20260906014027 71 0.0 2.0 0.00 0.13 0.13 94 1014.5
20260906013016 72 0.0 0.0 0.00 0.13 0.13 93 1014.1
20260906012016 72 293 1.0 1.0 0.00 0.13 0.13 93 1013.9
20260906011016 72 0.0 0.0 0.00 0.13 0.13 93 1014.0
20260906010016 72 0.0 2.0 0.00 0.13 0.13 93 1013.8
20260906005016 72 0.0 0.0 0.00 0.13 0.13 93 1013.7
20260906004016 72 0.0 2.0 0.00 0.13 0.13 93 1013.6
20260906003016 72 0 1.0 1.0 0.00 0.13 0.13 92 1013.4
20260906002036 73 0.0 0.0 0.00 0.13 0.13 92 1013.1
20260906001016 73 0.0 1.0 0.00 0.13 0.13 92 1013.5
20260906000015 73 0.0 1.0 0.00 0.13 0.13 92 1013.5
20260905235016 74 0 1.0 2.0 0.00 0.13 0.13 91 1013.3
20260905234016 74 90 1.0 2.0 0.01 0.13 0.13 90 1013.4
20260905233035 75 0.0 2.0 0.10 0.13 0.13 89 1013.2
20260905232015 75 270 1.0 6.0 0.10 0.13 0.13 89 1013.4
20260905231016 75 225 1.0 3.0 0.10 0.13 0.13 91 1013.3
20260905230016 75 315 1.0 4.0 0.13 0.13 0.13 88 1013.3
20260905225015 76 338 1.0 3.0 0.13 0.13 0.13 82 1013.3
20260905224016 79 0 6.0 15.0 0.12 0.12 0.12 71 1013.7
20260905223015 82 270 1.0 2.0 0.03 0.03 0.03 83 1013.8
20260905222015 82 0.0 2.0 0.03 0.03 0.03 84 1013.5
20260905221018 82 315 1.0 3.0 0.03 0.03 0.03 81 1013.6
20260905220015 84 293 2.0 5.0 0.00 0.00 0.00 74 1013.9
20260905215056 86 0.0 2.0 0.00 0.00 0.00 70 1013.6
20260905214015 87 0.0 2.0 0.00 0.00 0.00 68 1013.8
20260905213017 88 158 1.0 2.0 0.00 0.00 0.00 65 1014.0
20260905212017 89 0.0 2.0 0.00 0.00 0.00 63 1013.9
20260905211017 90 158 2.0 4.0 0.00 0.00 0.00 63 1014.0
20260905210017 90 135 2.0 5.0 0.00 0.00 0.00 63 1014.1
20260905205017 90 203 2.0 5.0 0.00 0.00 0.00 63 1014.0
20260905204017 89 158 1.0 4.0 0.00 0.00 0.00 64 1014.0
20260905203017 90 135 2.0 3.0 0.00 0.00 0.00 62 1014.1
20260905202018 90 135 1.0 3.0 0.00 0.00 0.00 62 1014.3
20260905201017 89 135 1.0 5.0 0.00 0.00 0.00 64 1014.3
20260905200017 89 158 2.0 6.0 0.00 0.00 0.00 64 1014.7
20260905195017 89 135 3.0 6.0 0.00 0.00 0.00 64 1015.0
20260905194015 89 135 3.0 7.0 0.00 0.00 0.00 64 1015.0
20260905193037 89 135 2.0 5.0 0.00 0.00 0.00 64 1015.2
20260905192017 89 203 2.0 5.0 0.00 0.00 0.00 65 1015.4
20260905191017 88 135 3.0 6.0 0.00 0.00 0.00 65 1015.5
20260905190037 88 158 3.0 7.0 0.00 0.00 0.00 65 1015.5
20260905185037 89 0 1.0 2.0 0.00 0.00 0.00 64 1015.7
20260905184017 88 113 1.0 2.0 0.00 0.00 0.00 65 1015.7
20260905183017 88 135 2.0 6.0 0.00 0.00 0.00 66 1016.0
20260905182018 88 158 3.0 8.0 0.00 0.00 0.00 66 1016.2
20260905181137 87 68 2.0 5.0 0.00 0.00 0.00 69 1016.4
20260905180037 87 158 2.0 5.0 0.00 0.00 0.00 71 1016.7
20260905175017 88 135 2.0 6.0 0.00 0.00 0.00 69 1016.8
20260905174017 87 90 2.0 4.0 0.00 0.00 0.00 69 1016.9
20260905173017 87 45 2.0 4.0 0.00 0.00 0.00 68 1016.9
20260905172017 86 135 2.0 6.0 0.00 0.00 0.00 70 1016.9
20260905171017 86 135 5.0 9.0 0.00 0.00 0.00 70 1017.1
20260905170037 86 113 2.0 5.0 0.00 0.00 0.00 73 1017.1
20260905165017 84 23 2.0 6.0 0.00 0.00 0.00 73 1017.2
20260905164017 83 0 1.0 2.0 0.00 0.00 0.00 75 1017.2
20260905163016 83 0 2.0 3.0 0.00 0.00 0.00 73 1017.1
20260905162017 84 113 2.0 5.0 0.00 0.00 0.00 72 1017.4
20260905161017 84 0 3.0 9.0 0.00 0.00 0.00 72 1017.5
20260905160037 85 0 6.0 14.0 0.00 0.00 0.00 72 1017.5
20260905155017 85 23 2.0 5.0 0.00 0.00 0.00 73 1017.6
20260905154017 85 23 2.0 9.0 0.00 0.00 0.00 71 1017.6
20260905153017 86 180 1.0 3.0 0.00 0.00 0.00 70 1017.2
20260905152017 86 225 1.0 3.0 0.00 0.00 0.00 70 1016.9
20260905151016 85 225 2.0 4.0 0.00 0.00 0.00 73 1016.9
20260905150017 84 203 3.0 6.0 0.00 0.00 0.00 73 1016.8
20260905145017 85 225 2.0 7.0 0.00 0.00 0.00 71 1017.0
20260905144016 84 203 2.0 4.0 0.00 0.00 0.00 72 1016.9
20260905143016 84 225 2.0 4.0 0.00 0.00 0.00 73 1017.0
20260905142017 83 135 1.0 2.0 0.00 0.00 0.00 73 1017.2
20260905141017 83 180 1.0 2.0 0.00 0.00 0.00 74 1017.2
20260905140016 82 180 1.0 2.0 0.00 0.00 0.00 76 1017.2
20260905135016 81 180 1.0 2.0 0.00 0.00 0.00 77 1017.0
20260905134016 80 225 1.0 2.0 0.00 0.00 0.00 78 1017.1
20260905133016 79 0.0 2.0 0.00 0.00 0.00 84 1017.2
20260905132016 78 0.0 2.0 0.00 0.00 0.00 85 1017.2
20260905131016 76 0.0 2.0 0.00 0.00 0.00 86 1017.2
20260905130017 74 0.0 2.0 0.00 0.00 0.00 90 1017.3
20260905125017 73 0.0 1.0 0.00 0.00 0.00 91 1017.6
20260905124017 72 0.0 1.0 0.00 0.00 0.00 92 1017.5
20260905123016 72 135 1.0 2.0 0.00 0.00 0.00 93 1017.5
20260905122016 71 0.0 0.0 0.00 0.00 0.00 93 1017.3
20260905121016 70 0.0 1.0 0.00 0.00 0.00 94 1017.2
20260905120016 70 135 1.0 2.0 0.00 0.00 0.00 95 1017.1
20260905115016 69 0.0 0.0 0.00 0.00 0.00 95 1017.2
20260905114016 69 0.0 2.0 0.00 0.00 0.00 94 1016.9
20260905113016 69 0.0 0.0 0.00 0.00 0.00 94 1017.0
20260905112016 69 0.0 0.0 0.00 0.00 0.00 94 1016.9
20260905111036 69 0.0 2.0 0.00 0.00 0.00 94 1016.5
20260905110016 69 0.0 0.0 0.00 0.00 0.00 94 1016.6
20260905105016 69 0.0 0.0 0.00 0.00 0.00 94 1016.6
20260905104036 69 0.0 2.0 0.00 0.00 0.00 94 1016.5
20260905103016 69 0 1.0 1.0 0.00 0.00 0.00 94 1016.5
20260905102016 69 0.0 2.0 0.00 0.00 0.00 94 1016.5
20260905101016 69 0.0 2.0 0.00 0.00 0.00 94 1016.4
20260905100036 69 0.0 2.0 0.00 0.00 0.00 93 1016.5
20260905095016 69 0.0 2.0 0.00 0.00 0.00 94 1016.5
20260905094016 69 0.0 2.0 0.00 0.00 0.00 94 1016.3
20260905093016 70 0.0 1.0 0.00 0.00 0.00 94 1016.2
20260905092016 70 0.0 2.0 0.00 0.00 0.00 94 1016.2
20260905091016 70 0.0 2.0 0.00 0.00 0.00 94 1016.1